Regional Weather Roundup
Issued by NWS

Home | Current Version | Previous Version | Graphics & Text | Print | Product List | Glossary On
Versions: 1 2 3 4 5 6 7 8 9 10 11 12 13 14 15 16 17 18 19 20 21 22 23 24 25 26 27 28 29 30 31 32 33 34 35 36 37 38 39 40 41 42 43 44 45 46 47 48 49 50
959
ASUS44 KMEG 290310
RWRTN
TENNESSEE HOURLY STATE WEATHER ROUNDUP
NATIONAL WEATHER SERVICE MEMPHIS TN
1000 PM CDT THU APR 28 2016

TNZ002-004-019-021-049-052-054-088>092-290400-
WEST TENNESSEE

CITY           SKY/WX    TMP DP  RH WIND       PRES   REMARKS
MEMPHIS INTL   CLEAR     71  52  50 CALM      29.97R
NWS MEMPHIS      N/A     65 N/A N/A MISG        N/A
JACKSON        CLEAR     62  57  83 CALM      29.98R
DYERSBURG      CLEAR     64  48  55 CALM      30.00R
UNION CITY     CLEAR     63  54  72 CALM      29.98R
LEXINGTON      CLEAR     61  59  94 CALM      29.98R
$$

TNZ008-025-027-028-033-062-065-066-290400-
NORTH MIDDLE TENNESSEE

CITY           SKY/WX    TMP DP  RH WIND       PRES   REMARKS
NASHVILLE      CLEAR     70  51  51 CALM      29.98R
CLARKSVILLE    CLEAR     67  50  54 W3        29.98R
SMYRNA         CLEAR     64  56  75 CALM      29.99R
COOKEVILLE     CLEAR     57  55  94 CALM      29.98R
CROSSVILLE     CLEAR     66  54  65 W6        30.02R
$$

TNZ061-075-076-078-094-096-097-290400-
SOUTH MIDDLE TENNESSEE

CITY           SKY/WX    TMP DP  RH WIND       PRES   REMARKS
FAYETTEVILLE   PTCLDY    72  55  56 NW5       30.00R
TULLAHOMA      CLEAR     61  57  88 CALM      30.02R
WINCHESTER     CLEAR     63  57  82 CALM      30.01R
MCMINNVILLE    CLEAR     70  52  52 VRB3      30.00R
COLUMBIA       CLEAR     64  64 100 CALM      29.98S
SHELBYVILLE    CLEAR     63  57  82 CALM      30.01R
$$

TNZ017-018-042-046-047-290400-
NORTHEAST TENNESSEE

CITY           SKY/WX    TMP DP  RH WIND       PRES   REMARKS
TRI CITIES     PTCLDY    64  56  75 CALM      29.95R
$$

TNZ012-013-036-069-073-074-290400-
CENTRAL EAST TENNESSEE

CITY           SKY/WX    TMP DP  RH WIND       PRES   REMARKS
KNOXVILLE      CLEAR     70  58  65 S5        29.95R
OAK RIDGE      CLEAR     69  57  65 CALM      29.97R
GATLINBURG     CLEAR     64  55  72 CALM      29.95R
MORRISTOWN     PTCLDY    72  57  60 W5        29.95R
$$

TNZ083-085-099-290400-
SOUTHEAST TENNESSEE

CITY           SKY/WX    TMP DP  RH WIND       PRES   REMARKS
CHATTANOOGA    CLEAR     71  56  58 SE3       29.96R
$$

SKY/WX REPORTED AS FAIR MEANS FEW OR NO CLOUDS BELOW
12 THOUSAND FEET.





USA.gov is the U.S. government's official web portal to all federal, state and local government web resources and services.